International Skating Union - Official Site

ISU World Single Distance Championships 2015
February 12-15, 2015

Draw | Lap Times | Index | Classification

Referee: Susan  SANDVIG-SHOBE  (USA)
Starter: Yves  BELANGER  (CAN)
StartTime: EndTime: Air Temp: Ice Temp: Humidity:
19:53 20:59
Result 5000m Ladies
Rankings as of Feb 13 2015 9:06PM
Rank: No.: Name: Nation: Time: Behind: Points:
1 17 Martina  Sábliková CZE CZE 6:52.73200m - 20.59 - (20.6)
600m - 52.55 - (31.9)
1000m - 1:25.38 - (32.8)
1400m - 1:58.16 - (32.7)
1800m - 2:30.83 - (32.6)
2200m - 3:03.52 - (32.6)
2600m - 3:36.45 - (32.9)
3000m - 4:09.34 - (32.8)
3400m - 4:42.16 - (32.8)
3800m - 5:14.82 - (32.6)
4200m - 5:47.60 - (32.7)
4600m - 6:20.24 - (32.6)
5000m - 6:52.73 - (32.4)
41.273
2 44 Carlijn  Achtereekte NED NED 6:54.49200m - 20.18 - (20.1)
600m - 51.79 - (31.6)
1000m - 1:23.83 - (32.0)
1400m - 1:56.17 - (32.3)
1800m - 2:28.57 - (32.4)
2200m - 3:01.32 - (32.7)
2600m - 3:34.06 - (32.7)
3000m - 4:06.95 - (32.9)
3400m - 4:40.05 - (33.0)
3800m - 5:13.72 - (33.6)
4200m - 5:47.16 - (33.4)
4600m - 6:20.82 - (33.6)
5000m - 6:54.49 - (33.6)
1.76 41.449
3 25 Claudia  Pechstein GER GER 6:56.53200m - 20.90 - (20.9)
600m - 53.57 - (32.6)
1000m - 1:26.67 - (33.1)
1400m - 1:59.45 - (32.7)
1800m - 2:32.19 - (32.7)
2200m - 3:04.92 - (32.7)
2600m - 3:37.88 - (32.9)
3000m - 4:10.77 - (32.8)
3400m - 4:43.84 - (33.0)
3800m - 5:16.99 - (33.1)
4200m - 5:50.49 - (33.5)
4600m - 6:23.70 - (33.2)
5000m - 6:56.53 - (32.8)
3.80 41.653
4 55 Jorien  Voorhuis NED NED 7:05.64200m - 20.35 - (20.3)
600m - 53.29 - (32.9)
1000m - 1:26.60 - (33.3)
1400m - 1:59.83 - (33.2)
1800m - 2:32.96 - (33.1)
2200m - 3:06.61 - (33.6)
2600m - 3:40.05 - (33.4)
3000m - 4:13.76 - (33.7)
3400m - 4:47.62 - (33.8)
3800m - 5:21.69 - (34.0)
4200m - 5:56.01 - (34.3)
4600m - 6:30.68 - (34.6)
5000m - 7:05.64 - (34.9)
12.91 42.564
5 67 Olga  Graf RUS RUS 7:07.89200m - 21.49 - (21.5)
600m - 54.22 - (32.7)
1000m - 1:27.67 - (33.4)
1400m - 2:01.23 - (33.5)
1800m - 2:34.90 - (33.6)
2200m - 3:08.85 - (33.9)
2600m - 3:42.72 - (33.8)
3000m - 4:16.61 - (33.9)
3400m - 4:50.85 - (34.2)
3800m - 5:24.88 - (34.0)
4200m - 5:59.22 - (34.3)
4600m - 6:33.56 - (34.3)
5000m - 7:07.89 - (34.3)
15.16 42.789
6 5 Ivanie  Blondin CAN CAN 7:08.97200m - 20.90 - (20.9)
600m - 54.06 - (33.1)
1000m - 1:27.63 - (33.5)
1400m - 2:01.37 - (33.7)
1800m - 2:35.12 - (33.7)
2200m - 3:08.66 - (33.5)
2600m - 3:42.26 - (33.6)
3000m - 4:16.09 - (33.8)
3400m - 4:50.08 - (33.9)
3800m - 5:24.27 - (34.1)
4200m - 5:58.69 - (34.4)
4600m - 6:33.77 - (35.0)
5000m - 7:08.97 - (35.2)
16.24 42.897
7 65 Anna  Chernova RUS RUS 7:13.71200m - 21.62 - (21.6)
600m - 54.25 - (32.6)
1000m - 1:27.87 - (33.6)
1400m - 2:01.80 - (33.9)
1800m - 2:35.89 - (34.0)
2200m - 3:09.91 - (34.0)
2600m - 3:43.89 - (33.9)
3000m - 4:18.38 - (34.4)
3400m - 4:53.16 - (34.7)
3800m - 5:28.17 - (35.0)
4200m - 6:03.48 - (35.3)
4600m - 6:38.80 - (35.3)
5000m - 7:13.71 - (34.9)
20.98 43.371
8 20 Stephanie  Beckert GER GER 7:16.19200m - 21.44 - (21.4)
600m - 54.82 - (33.3)
1000m - 1:28.67 - (33.8)
1400m - 2:02.29 - (33.6)
1800m - 2:36.17 - (33.8)
2200m - 3:10.41 - (34.2)
2600m - 3:44.85 - (34.4)
3000m - 4:19.47 - (34.6)
3400m - 4:54.49 - (35.0)
3800m - 5:29.56 - (35.0)
4200m - 6:05.13 - (35.5)
4600m - 6:40.76 - (35.6)
5000m - 7:16.19 - (35.4)
23.46 43.619
9 2 Jelena  Peeters BEL BEL 7:17.28200m - 21.04 - (21.0)
600m - 54.84 - (33.7)
1000m - 1:29.04 - (34.2)
1400m - 2:03.34 - (34.3)
1800m - 2:37.38 - (34.0)
2200m - 3:11.98 - (34.6)
2600m - 3:46.69 - (34.7)
3000m - 4:21.54 - (34.8)
3400m - 4:56.34 - (34.8)
3800m - 5:31.44 - (35.1)
4200m - 6:06.73 - (35.2)
4600m - 6:42.30 - (35.5)
5000m - 7:17.28 - (34.9)
24.55 43.728
10 29 Shoko  Fujimura JPN JPN 7:19.44200m - 21.31 - (21.3)
600m - 54.99 - (33.6)
1000m - 1:29.33 - (34.3)
1400m - 2:03.79 - (34.4)
1800m - 2:38.45 - (34.6)
2200m - 3:13.18 - (34.7)
2600m - 3:47.90 - (34.7)
3000m - 4:22.80 - (34.9)
3400m - 4:57.97 - (35.1)
3800m - 5:33.26 - (35.2)
4200m - 6:09.04 - (35.7)
4600m - 6:44.56 - (35.5)
5000m - 7:19.44 - (34.8)
26.71 43.944
11 73 Maria  Lamb USA USA 7:20.42200m - 21.34 - (21.3)
600m - 55.50 - (34.1)
1000m - 1:30.11 - (34.6)
1400m - 2:04.46 - (34.3)
1800m - 2:38.95 - (34.4)
2200m - 3:13.29 - (34.3)
2600m - 3:47.93 - (34.6)
3000m - 4:22.73 - (34.8)
3400m - 4:58.00 - (35.2)
3800m - 5:33.58 - (35.5)
4200m - 6:09.10 - (35.5)
4600m - 6:44.71 - (35.6)
5000m - 7:20.42 - (35.7)
27.69 44.042
12 39 Bo-Reum  Kim KOR KOR 7:39.30200m - 21.46 - (21.4)
600m - 55.82 - (34.3)
1000m - 1:30.99 - (35.1)
1400m - 2:06.49 - (35.5)
1800m - 2:41.72 - (35.2)
2200m - 3:17.42 - (35.6)
2600m - 3:54.02 - (36.6)
3000m - 4:30.93 - (36.9)
3400m - 5:08.13 - (37.2)
3800m - 5:45.76 - (37.6)
4200m - 6:23.56 - (37.7)
4600m - 7:01.28 - (37.7)
5000m - 7:39.30 - (38.0)
46.57 45.930